Regional Weather Roundup
Issued by NWS

Home | Current Version | Previous Version | Graphics & Text | Print | Product List | Glossary On
Versions: 1 2 3 4 5 6 7 8 9 10 11 12 13 14 15 16 17 18 19 20 21 22 23 24 25 26 27 28 29 30 31 32 33 34 35 36 37 38 39 40 41 42 43 44 45 46 47 48 49 50
000
ASUS43 KTOP 130908
RWRKS

WEATHER ROUNDUP FOR KANSAS
NATIONAL WEATHER SERVICE GOODLAND KS
300 AM CST WED DEC 13 2017

NOTE:  "FAIR" INDICATES FEW OR NO CLOUDS BELOW 12,000 FEET WITH NO
SIGNIFICANT WEATHER AND/OR OBSTRUCTIONS TO VISIBILITY.

KSZ001>006-013>018-027>032-041>047-131000-
NORTHWEST KANSAS

CITY           SKY/WX    TMP DP  RH WIND       PRES   REMARKS
GOODLAND       CLEAR     40  14  34 W15       29.96R WCI  32
HAYS           CLEAR     40  17  39 W9        29.86S
HILL CITY      CLEAR     48  18  30 W12       29.86S
RUSSELL        CLEAR     36  19  50 SW10      29.83S WCI  28
$$

KSZ061>065-074>080-084>089-131000-
SOUTHWEST KANSAS

CITY           SKY/WX    TMP DP  RH WIND       PRES   REMARKS
DODGE CITY     CLEAR     43  15  32 W18       29.92S
ELKHART        CLOUDY    48  19  30 W16       29.99F
GARDEN CITY    CLEAR     33  15  47 W10       29.94S WCI  25
GREAT BEND     CLEAR     41  18  39 W9        29.87S
LIBERAL        CLEAR     38  14  37 NW12      29.97S WCI  30
PRATT          CLEAR     41  15  34 W9        29.88S
$$

KSZ066>073-081>083-090>101-131000-
SOUTHEAST KANSAS

CITY           SKY/WX    TMP DP  RH WIND       PRES   REMARKS
CHANUTE        CLEAR     35  27  72 S14       29.90F WCI  26
COFFEYVILLE    CLEAR     36  28  73 S12       29.93F WCI  28
HUTCHINSON     CLOUDY    31  21  66 SW3       29.86F
MEDICINE LODGE   N/A     28  21  75 N3        29.88F
NEWTON         CLEAR     35  24  64 SW12      29.85F WCI  27
PARSONS        CLEAR     34  28  79 S6        29.93F
WICHITA INTL   CLEAR     31  25  78 S8        29.87F
WICHITA JABRA  CLEAR     37  26  64 SW10      29.87F WCI  30
WICHITA MCCONL CLEAR     33  24  69 SW7       29.87F
WINFIELD       CLEAR     33  27  78 S5        29.91F
$$

KSZ007>012-019>026-033>040-048>060-102>105-131000-
NORTHEAST KANSAS

CITY           SKY/WX    TMP DP  RH WIND       PRES   REMARKS
CONCORDIA      CLOUDY    41  19  41 W14       29.76F
EMPORIA        CLEAR     38  26  62 S10       29.82F WCI  31
LAWRENCE       CLEAR     37  28  70 VRB3      29.80F
MANHATTAN      CLEAR     39  24  55 SW14      29.78F WCI  31
MARYSVILLE     CLEAR     36  23  60 SW10      29.73F WCI  28
OLATHE IND     CLEAR     36  28  73 S17       29.81F WCI  26
OLATHE EXE     CLEAR     33  27  78 S12       29.80F WCI  24
SALINA         CLEAR     40  20  44 SW10      29.80F WCI  33
TOPEKA BILLARD CLEAR     39  28  64 SW7       29.79F
TOPEKA FORBES  CLEAR     36  28  73 S14       29.78F WCI  27
$$




USA.gov is the U.S. government's official web portal to all federal, state and local government web resources and services.